User: anonymous   Login
Location: Unspecified
(0.0000°N, 0.0000°E)
Time: 20:46:41
(UTC+00:00)
Language:

STARLINK-4206 - Orbit

View from above orbital plane
View from above orbital plane
View from above satellite
View from above satellite

Ground track
Ground track

The orbit is defined by the following mean orbital elements,

1 52847U          26145.02186471 +.00000000 +00000-0 +36537-4 0 00004
2 52847  53.2147  51.4502 0001322  90.5974 269.5170 15.08839514    03
Epoch (UTC): 25 May 2026 00:31:29
Eccentricity: 0.0001322
inclination: 53.2147°
perigee height: 539 km
apogee height: 541 km
right ascension of ascending node: 51.4502°
argument of perigee: 90.5974°
revolutions per day: 15.08839514
mean anomaly at epoch: 269.5170°

The dashed part of the orbit path shows where the satellite is in the earth's shadow,  

DLR